Weather History for Two Harbors, MN

Change the Weather History Date:

Tuesday, November 8, 2011

  Actual Average Record
Temperature  
Mean Temperature 34 °F -  
Max Temperature 46 °F 43 °F 68 °F (1999)
Min Temperature 23 °F 28 °F 1 °F (2003)
Degree Days  
Heating Degree Days 30    
Moisture  
Dew Point 23 °F    
Average Humidity 68    
Maximum Humidity 80    
Minimum Humidity 37    
Precipitation  
Precipitation 0.00 in - - ()
Sea Level Pressure  
Sea Level Pressure 30.16 in    
Wind  
Wind Speed 3 mph (WNW)    
Max Wind Speed 7 mph    
Max Gust Speed -    
Visibility 10 miles    
Events      
Averages and records for this station are not official NWS values.
T = Trace of Precipitation, MM = Missing Value Source: NWS Daily Summary

Daily Weather History Graph

Daily Weather History Graph

Search for Another Location

Airport:

Trip Planner

Search our weather history database for the weather conditions in past years. The results will help you decide how hot, cold, wet, or windy it might be!

Date:

Astronomy

Nov. 08, 2011 Rise Set
Actual Time 6:59 AM CST 4:40 PM CST
Civil Twilight 6:27 AM CST 5:13 PM CST
Nautical Twilight 5:50 AM CST 5:49 PM CST
Astronomical Twilight 5:15 AM CST 6:25 PM CST
Moon 3:23 PM CST (11/8) 4:54 AM CST (11/8)
Length of Visible Light 10h 46m
Length of Day
9h 41m
Waxing Gibbous, 96% of the Moon is Illuminated
Nov 8
Waxing Gibbous
Nov 10
Full
Nov 18
Last Quarter
Nov 25
New
Dec 2
First Quarter

Hourly Weather History & Observations

Time (CST) Temp. Windchill Dew Point Humidity Pressure Visibility Wind Dir Wind Speed Gust Speed Precip Events Conditions
12:12 AM 26.6 °F - 21.2 °F 80% 30.16 in 10.0 mi Calm Calm - N/A   Clear
12:33 AM 26.6 °F 22.6 °F 21.2 °F 80% 30.16 in 10.0 mi WNW 3.5 mph - N/A   Clear
12:53 AM 26.6 °F 22.6 °F 21.2 °F 80% 30.16 in 10.0 mi WNW 3.5 mph - N/A   Clear
1:12 AM 26.6 °F 22.6 °F 21.2 °F 80% 30.16 in 10.0 mi WNW 3.5 mph - N/A   Clear
1:33 AM 26.6 °F - 19.4 °F 74% 30.17 in 10.0 mi Calm Calm - N/A   Clear
1:53 AM 23.0 °F - 17.6 °F 80% 30.17 in 10.0 mi Calm Calm - N/A   Clear
2:12 AM 24.8 °F - 19.4 °F 80% 30.17 in 10.0 mi Calm Calm - N/A   Clear
2:33 AM 24.8 °F - 19.4 °F 80% 30.17 in 10.0 mi Calm Calm - N/A   Clear
2:53 AM 24.8 °F 20.5 °F 19.4 °F 80% 30.18 in 10.0 mi WNW 3.5 mph - N/A   Clear
3:12 AM 24.8 °F - 19.4 °F 80% 30.18 in 10.0 mi Calm Calm - N/A   Clear
3:33 AM 26.6 °F 21.2 °F 21.2 °F 80% 30.18 in 10.0 mi WNW 4.6 mph - N/A   Clear
3:53 AM 26.6 °F 20.0 °F 21.2 °F 80% 30.16 in 10.0 mi NW 5.8 mph - N/A   Clear
4:13 AM 26.6 °F 21.2 °F 21.2 °F 80% 30.17 in 10.0 mi NW 4.6 mph - N/A   Clear
4:33 AM 26.6 °F 21.2 °F 21.2 °F 80% 30.17 in 10.0 mi NW 4.6 mph - N/A   Clear
5:12 AM 26.6 °F 21.2 °F 21.2 °F 80% 30.17 in 10.0 mi NW 4.6 mph - N/A   Clear
5:33 AM 26.6 °F 19.1 °F 21.2 °F 80% 30.17 in 10.0 mi NW 6.9 mph - N/A   Clear
5:53 AM 26.6 °F 20.0 °F 21.2 °F 80% 30.17 in 10.0 mi WNW 5.8 mph - N/A   Clear
6:13 AM 26.6 °F 20.0 °F 21.2 °F 80% 30.17 in 10.0 mi NW 5.8 mph - N/A   Clear
6:33 AM 26.6 °F 20.0 °F 21.2 °F 80% 30.17 in 10.0 mi NW 5.8 mph - N/A   Clear
6:53 AM 26.6 °F 19.1 °F 21.2 °F 80% 30.17 in 10.0 mi NW 6.9 mph - N/A   Clear
7:12 AM 26.6 °F 20.0 °F 21.2 °F 80% 30.18 in 10.0 mi NW 5.8 mph - N/A   Clear
7:33 AM 28.4 °F 22.2 °F 21.2 °F 74% 30.18 in 10.0 mi NW 5.8 mph - N/A   Clear
7:53 AM 28.4 °F 23.3 °F 21.2 °F 74% 30.17 in 10.0 mi NW 4.6 mph - N/A   Clear
8:12 AM 30.2 °F 25.4 °F 23.0 °F 75% 30.17 in 10.0 mi NW 4.6 mph - N/A   Clear
8:33 AM 33.8 °F 30.8 °F 24.8 °F 70% 30.18 in 10.0 mi NW 3.5 mph - N/A   Clear
8:53 AM 35.6 °F - 24.8 °F 65% 30.17 in 10.0 mi Calm Calm - N/A   Clear
9:13 AM 37.4 °F 34.9 °F 24.8 °F 60% 30.18 in 10.0 mi NW 3.5 mph - N/A   Clear
9:33 AM 39.2 °F 37.0 °F 24.8 °F 56% 30.17 in 10.0 mi NW 3.5 mph - N/A   Clear
9:53 AM 39.2 °F 37.0 °F 24.8 °F 56% 30.17 in 10.0 mi West 3.5 mph - N/A   Clear
10:13 AM 39.2 °F 35.9 °F 24.8 °F 56% 30.18 in 10.0 mi West 4.6 mph - N/A   Clear
10:33 AM 42.8 °F - 24.8 °F 49% 30.18 in 10.0 mi Calm Calm - N/A   Clear
10:52 AM 42.8 °F - 24.8 °F 49% 30.17 in 10.0 mi Calm Calm - N/A   Clear
11:13 AM 42.8 °F 41.1 °F 23.0 °F 46% 30.17 in 10.0 mi NW 3.5 mph - N/A   Clear
11:33 AM 44.6 °F 43.1 °F 23.0 °F 43% 30.17 in 10.0 mi West 3.5 mph - N/A   Clear
11:53 AM 44.6 °F 43.1 °F 21.2 °F 39% 30.16 in 10.0 mi WNW 3.5 mph - N/A   Clear
12:13 PM 44.6 °F 43.1 °F 21.2 °F 39% 30.16 in 10.0 mi West 3.5 mph - N/A   Clear
12:33 PM 42.8 °F 38.6 °F 28.4 °F 57% 30.15 in 10.0 mi SSE 6.9 mph - N/A   Clear
12:52 PM 42.8 °F 38.6 °F 28.4 °F 57% 30.15 in 10.0 mi SSE 6.9 mph - N/A   Clear
1:13 PM 44.6 °F 43.1 °F 26.6 °F 49% 30.14 in 10.0 mi SW 3.5 mph - N/A   Clear
1:33 PM 44.6 °F - 26.6 °F 49% 30.13 in 10.0 mi Calm Calm - N/A   Clear
1:53 PM 46.4 °F - 21.2 °F 37% 30.13 in 10.0 mi Calm Calm - N/A   Clear
2:13 PM 44.6 °F 43.1 °F 26.6 °F 49% 30.13 in 7.0 mi ESE 3.5 mph - N/A   Clear
2:33 PM 44.6 °F - 26.6 °F 49% 30.13 in 10.0 mi Calm Calm - N/A   Clear
2:53 PM 42.8 °F 39.3 °F 26.6 °F 53% 30.13 in 10.0 mi South 5.8 mph - N/A   Clear
3:13 PM 42.8 °F 40.1 °F 26.6 °F 53% 30.13 in 10.0 mi SE 4.6 mph - N/A   Clear
3:33 PM 39.2 °F 34.2 °F 26.6 °F 61% 30.14 in 10.0 mi SSE 6.9 mph - N/A   Clear
3:53 PM 39.2 °F 35.9 °F 26.6 °F 61% 30.14 in 10.0 mi SSE 4.6 mph - N/A   Clear
4:13 PM 37.4 °F - 26.6 °F 65% 30.14 in 10.0 mi Calm Calm - N/A   Clear
4:33 PM 35.6 °F - 24.8 °F 65% 30.14 in 10.0 mi Calm Calm - N/A   Clear
4:53 PM 35.6 °F - 24.8 °F 65% 30.14 in 10.0 mi Calm Calm - N/A   Clear
5:13 PM 33.8 °F - 24.8 °F 70% 30.15 in 10.0 mi Calm Calm - N/A   Clear
5:33 PM 28.4 °F - 21.2 °F 74% 30.16 in 10.0 mi Calm Calm - N/A   Clear
5:53 PM 28.4 °F 24.6 °F 21.2 °F 74% 30.16 in 10.0 mi North 3.5 mph - N/A   Clear
6:13 PM 26.6 °F 22.6 °F 21.2 °F 80% 30.16 in 10.0 mi North 3.5 mph - N/A   Clear
6:33 PM 26.6 °F 22.6 °F 21.2 °F 80% 30.16 in 10.0 mi North 3.5 mph - N/A   Clear
6:53 PM 26.6 °F 21.2 °F 21.2 °F 80% 30.15 in 10.0 mi North 4.6 mph - N/A   Clear
7:13 PM 26.6 °F 21.2 °F 21.2 °F 80% 30.14 in 10.0 mi North 4.6 mph - N/A   Clear
7:33 PM 24.8 °F 20.5 °F 19.4 °F 80% 30.14 in 10.0 mi NW 3.5 mph - N/A   Clear
7:53 PM 24.8 °F - 19.4 °F 80% 30.15 in 10.0 mi Calm Calm - N/A   Clear
8:13 PM 24.8 °F - 19.4 °F 80% 30.14 in 10.0 mi Calm Calm - N/A   Clear
8:33 PM 24.8 °F - 19.4 °F 80% 30.14 in 10.0 mi Calm Calm - N/A   Clear
8:53 PM 24.8 °F - 19.4 °F 80% 30.14 in 10.0 mi Calm Calm - N/A   Clear
9:13 PM 26.6 °F 22.6 °F 21.2 °F 80% 30.14 in 10.0 mi North 3.5 mph - N/A   Clear
9:33 PM 26.6 °F 21.2 °F 21.2 °F 80% 30.14 in 10.0 mi North 4.6 mph - N/A   Clear
9:53 PM 24.8 °F - 19.4 °F 80% 30.14 in 10.0 mi Calm Calm - N/A   Clear
10:13 PM 24.8 °F - 19.4 °F 80% 30.15 in 10.0 mi Calm Calm - N/A   Clear
10:33 PM 24.8 °F - 19.4 °F 80% 30.15 in 10.0 mi Calm Calm - N/A   Clear
10:52 PM 24.8 °F - 19.4 °F 80% 30.15 in 10.0 mi Calm Calm - N/A   Clear
11:13 PM 24.8 °F - 19.4 °F 80% 30.15 in 10.0 mi Calm Calm - N/A   Clear
11:33 PM 24.8 °F 20.5 °F 19.4 °F 80% 30.14 in 10.0 mi North 3.5 mph - N/A   Clear
11:53 PM 24.8 °F 19.1 °F 19.4 °F 80% 30.14 in 10.0 mi NNW 4.6 mph - N/A   Clear